SL-16 DEB, 44574

Orbit data source: Space-Track

SL-16 DEB, 44574 is space debris in LEO originally from a launch on Fri, 25 Dec 1992 UTC launched from the Tyuratam Missile And Space Complex (TTMTR). Debris objects in space refer to the collection of defunct objects orbiting the Earth. Examples of debris include non-operational satellites, rocket bodies, and fragments generated from explosions, collisions, or faulty payload assembly.

Loading next visibility...
Identifier
44574, 1992-093LW
Orbit
LEO
Country
Flag of CISCIS
Related business
Manufacturer
Unknown
Mission
Spacecraft
Bus & Motor
Unknown
Mass
Unknown
Launch date (UTC)
1992-12-25 (33 years ago)
Launch vehicle
Unknown
Launch site
Tyuratam Missile And Space Complex (TTMTR)
Object type
Payload
Rocket body
Debris
Shape & HBR
Unknown
Radar Cross Section
Small (<0.1 m²)

Expand to show TLE details & history
Last TLE update: 19 hours ago

TLE from 19 hours ago
0 SL-16 DEB
1 44574U 92093LW  25260.63658554  .00005017  00000-0  13090-2 0  9992
2 44574  71.1219 331.4944 0085388  82.8755  39.7285 14.47759242615227
Epoch: 2025-09-17T15:16Z
TLE epoch observation values (Epoch: 2025-09-17T15:16:40.99Z)
Latitude
52.43427°
Longitude
-100.72943°
Altitude
694.477 km
Speed
7.539 km/s
True Right ascension
08h 21m 00s
True Declination
52° 15' 59"
Sunlit
Object was in daylight at epoch
Visualization orbit readout
Latitude
Unknown
Longitude
Unknown
Altitude
Unknown
Speed
Unknown
Apparent Right ascension
Unknown
Apparent Declination
Unknown
Sunlit
N/A
Visualization observer readout
Local Sidereal Time
02:42:04
Azimuth
Unknown
Elevation
Unknown
Doppler factor
Unknown
Orbital elements
Apogee altitude
791.559 km
Perigee altitude
670.155 km
Semi-major axis
7,108.994 km
Eccentricity
0.00854
Inclination
71.1219°
RAAN
331.4944°
Arg. of periapsis
82.8755°
True anomaly
40.35905°
Mean anomaly
39.7285°
Eccentric anomaly
40.04326°
Mean motion
3.62102 °/min
Orbital period
99.42 mins
BSTAR
0.001309
Loading maneuver chart data...
Computing Atmospheric mass density...
Loading historical data...
Loading historical data...
Loading historical data...
Loading historical data...
Loading historical data...
Loading historical data...
Loading historical data...

Documentation

Showing up to 5 results
|